Hourly Data Report for June 28, 2021

ATIKOKAN (AUT)
ONTARIO
Current Station Operator: ECCC - MSC

48°45'40.000" N
91°37'41.000" W
389.30 m
6020LPQ
71747
WCH

Download Data

Hourly Data (June 2021)
Hourly Data Report for June 28, 2021
TIME
LST
Temp Definition
°C
Dew Point Definition
°C
Rel Hum Definition
%
Precip. Amount Definition
mm

Wind Dir Definition
10's deg

Wind Spd Definition
km/h
Visibility Definition
km
Stn Press Definition
kPa
Hmdx Definition


Wind Chill Definition


Weather Definition


00:00 14.1 13.1 94 0.0 29 1   96.97     LegendNANA
01:00 13.4 12.8 96 0.0 0 1   96.96     LegendNANA
02:00 12.4 12.0 97 0.0 0 1   96.96     LegendNANA
03:00 12.1 11.8 98 0.0 4 2   96.98     LegendNANA
04:00 11.5 11.3 98 0.0   0   97.02     LegendNANA
05:00 12.0 11.8 99 0.0 0 1   97.07     LegendNANA
06:00 14.8 14.6 99 0.0 0 1   97.10     LegendNANA
07:00 19.5 16.5 83 0.0 24 4   97.11     LegendNANA
08:00 21.7 16.0 70 0.0 26 7   97.12 26   LegendNANA
09:00 23.2 15.4 61 0.0 23 8   97.15 27   LegendNANA
10:00 24.3 14.5 54 0.0 26 7   97.17 28   LegendNANA
11:00 25.4 13.9 49 0.0 26 8   97.16 29   LegendNANA
12:00 25.7 12.2 43 0.0 26 10   97.16 28   LegendNANA
13:00 26.2 10.3 37 0.0 25 7   97.13 28   LegendNANA
14:00 25.4 13.9 49 0.0 33 14   97.16 29   LegendNANA
15:00 24.0 15.3 58 0.0 33 7   97.16 28   LegendNANA
16:00 26.0 12.1 42 0.0 5 4   97.15 28   LegendNANA
17:00 23.3 14.4 57 0.0 31 4   97.15 27   LegendNANA
18:00 23.5 16.3 64 0.0 27 3   97.17 28   LegendNANA
19:00 23.1 16.7 67 0.0 27 2   97.18 28   LegendNANA
20:00 21.9 15.5 67 0.0 26 1   97.20 26   LegendNANA
21:00 20.0 16.1 78 0.0   0   97.24 25   LegendNANA
22:00 19.0 16.7 86 0.0 0 1   97.26     LegendNANA
23:00 18.8 16.8 88 0.0 9 2   97.28     LegendNANA

Notes on Data Quality.

Legend

  • E = Estimated
  • M = Missing
  • NA = Not Available*
  • [empty] = Indicates an unobserved value
Date modified: